September 30, 2022

Time Code Weather Temp. Visibility Ceiling Wind METAR/SPECI
01:00
V
13 °C 15 mi 11,000 ft 340° 340° 17 - 24 kt METAR CYYC 300700Z 34017G24KT 15SM BKN110 13/08 A3010 RMK AC7 SLP205 DENSITY ALT 4000FT
00:00
V
13 °C 15 mi - 340° 340° 19 - 24 kt METAR CYYC 300600Z 34019G24KT 15SM SCT110 13/08 A3009 RMK AC4 SLP199 DENSITY ALT 4000FT

September 29, 2022

Time Code Weather Temp. Visibility Ceiling Wind METAR/SPECI
23:00
V
13 °C 15 mi 14,000 ft 340° 340° 17 - 24 kt METAR CYYC 300500Z 34017G24KT 15SM BKN140 13/08 A3008 RMK AC7 SLP197 DENSITY ALT 4000FT
22:00
V
12 °C 15 mi - 330° 330° 17 - 22 kt METAR CYYC 300400Z 33017G22KT 15SM FEW100 12/08 A3008 RMK AC2 SLP195 DENSITY ALT 4000FT
21:00
V
13 °C 15 mi 10,000 ft 330° 330° 15 kt METAR CYYC 300300Z 33015KT 15SM BKN100 13/08 A3007 RMK AC5 SLP188 DENSITY ALT 4100FT
20:00
V
13 °C 15 mi 13,000 ft 340° 340° 13 - 18 kt METAR CYYC 300200Z 34013G18KT 15SM SCT095 BKN130 BKN230 13/08 A3006 RMK AC4AC1CC1 SLP183 DENSITY ALT 4100FT
19:00
V
14 °C 9 mi 23,000 ft 350° 350° 16 - 22 kt METAR CYYC 300100Z 35016G22KT 9SM SCT130 BKN230 14/08 A3003 RMK AC4CI1 ACC ASOCTD / CONTRAILS SLP172 DENSITY ALT 4200FT
18:00
V
15 °C 9 mi 20,000 ft 340° 340° 17 kt METAR CYYC 300000Z 34017KT 9SM SCT093 BKN200 15/09 A3002 RMK AC4CI2 ACC ASOCTD SLP169 DENSITY ALT 4400FT
17:00
V
15 °C 15 mi 9,400 ft 360° 360° 14 - 23 kt METAR CYYC 292300Z 36014G23KT 15SM SCT081 BKN094 BKN230 15/09 A3001 RMK AC4AC1CI2 ACC ASOCTD / VIRGA SLP173 DENSITY ALT 4400FT
16:00
V
17 °C 15 mi 7,600 ft 340° 340° 12 kt METAR CYYC 292200Z 34012KT 15SM FEW036TCU BKN076 BKN230 17/08 A3001 RMK TCU1AC5CI2 TCU TR DIST SH SW / ACC ASOCTD SLP170 DENSITY ALT 4600FT
15:00
V
17 °C 12 mi 14,000 ft 320° 320° 18 kt METAR CYYC 292100Z 32018KT 12SM SCT093 BKN140 BKN230 17/08 A2997 RMK AC4AC1CI2 SLP156 DENSITY ALT 4600FT
14:00
V
15 °C 12 mi 15,000 ft 330° 330° 18 - 24 kt METAR CYYC 292000Z 33018G24KT 12SM SCT092 BKN150 BKN230 15/08 A2997 RMK AC4AC2CI1 DIST SH NW-SE / ACC ASOCTD SLP158 DENSITY ALT 4500FT
13:38
V
14 °C 12 mi 9,200 ft 330° 330° 17 - 24 kt METAR CYYC 291938Z 33017G24KT 12SM BKN092 BKN230 14/08 A2998 RMK AC6CI1 DIST SH NW-SE / ACC ASOCTD SLP161 DENSITY ALT 4400FT
13:00
V
14 °C 12 mi 10,000 ft 320° 320° 6 kt METAR CYYC 291900Z 32006KT 280V340 12SM -SHRA BKN100 BKN230 14/09 A3000 RMK ACC7CI1 CI TR SLP168 DENSITY ALT 4300FT
12:00
V
16 °C 9 mi 8,000 ft 280° 280° 6 kt METAR CYYC 291800Z 28006KT 9SM BKN080 16/09 A3000 RMK AC7 OCNL -SHRA SLP164 DENSITY ALT 4500FT
11:00
V
14 °C 12 mi 8,200 ft 040° 040° 8 kt METAR CYYC 291700Z 04008KT 12SM -SHRA OVC082 14/08 A2999 RMK ACC8 SLP159 DENSITY ALT 4300FT
10:00
V
16 °C 6 mi 6,800 ft 120° 120° 10 - 15 kt METAR CYYC 291600Z 12010G15KT 6SM -SHRA FU BKN068 OVC100 16/05 A2999 RMK FU1ACC6AC1 PRESRR SLP161 DENSITY ALT 4500FT
09:21
V
16 °C 9 mi 10,000 ft Var Var 2 kt METAR CYYC 291521Z VRB02KT 9SM -SHRA BKN100 BKN230 16/04 A2993 RMK FU1ACC6CI1 CI TR SLP133 DENSITY ALT 4600FT
09:00
V
18 °C 9 mi 10,000 ft 050° 050° 12 - 18 kt METAR CYYC 291500Z 05012G18KT 9SM BKN100 18/04 A2993 RMK FU1AC6 VIRGA SLP133 DENSITY ALT 4800FT
08:00
V
19 °C 9 mi 6,900 ft 320° 320° 5 kt METAR CYYC 291400Z 32005KT 9SM BKN069 OVC110 19/05 A2990 RMK FU1AC5AC2 SH E SLP116 DENSITY ALT 4900FT
07:40
V
19 °C 8 mi 6,900 ft 310° 310° 8 kt METAR CYYC 291340Z 31008KT 8SM BKN069 OVC110 19/05 A2990 RMK FU1AC5AC2 VCSH SLP115 DENSITY ALT 5000FT
07:00
V
20 °C 15 mi 7,400 ft 270° 270° 10 - 18 kt METAR CYYC 291300Z 27010G18KT 15SM -RA BKN074 OVC100 20/04 A2992 RMK AC6AC2 -RA INTMT SLP120 DENSITY ALT 5000FT
06:51
V
19 °C 15 mi 7,400 ft 260° 260° 11 kt METAR CYYC 291251Z 26011KT 210V290 15SM -RA BKN074 OVC110 19/04 A2991 RMK AC6AC2 SLP119 DENSITY ALT 5000FT
06:00
V
17 °C 15 mi 10,000 ft 270° 270° 8 kt METAR CYYC 291200Z 27008KT 15SM FEW070 BKN100 OVC130 17/03 A2990 RMK AC1AC5AC2 SLP114 DENSITY ALT 4800FT
05:37
V
16 °C 15 mi 10,000 ft 230° 230° 5 kt METAR CYYC 291137Z 23005KT 210V010 15SM SCT070 OVC100 16/04 A2992 RMK AC3AC5 SLP118 DENSITY ALT 4600FT
05:22
V
21 °C 15 mi 7,000 ft Var Var 10 - 25 kt METAR CYYC 291122Z VRB10G25KT 15SM -RA BKN070 OVC110 21/05 A2992 RMK AC6AC2 PRESFR SLP112 DENSITY ALT 5200FT
05:00
V
12 °C 15 mi 13,000 ft 320° 320° 5 kt METAR CYYC 291100Z 32005KT 260V330 15SM OVC130 12/05 A2993 RMK AC8 SLP129 DENSITY ALT 4100FT
04:00
V
12 °C 15 mi 20,000 ft 220° 220° 4 kt METAR CYYC 291000Z 22004KT 15SM FEW120 BKN200 12/04 A2994 RMK AC2CI3 SLP131 DENSITY ALT 4100FT
03:00
V
12 °C 15 mi - Var Var 2 kt METAR CYYC 290900Z VRB02KT 15SM FEW190 SCT230 12/04 A2993 RMK AC2CI1 SLP129 DENSITY ALT 4100FT
02:00
V
13 °C 15 mi 21,000 ft 330° 330° 4 kt METAR CYYC 290800Z 33004KT 300V020 15SM FEW130 BKN210 13/04 A2993 RMK AC2CI5 SLP127 DENSITY ALT 4300FT
01:00
V
14 °C 15 mi 11,000 ft 010° 010° 6 kt METAR CYYC 290700Z 01006KT 15SM BKN110 OVC170 14/04 A2993 RMK AC5AC3 SLP129 DENSITY ALT 4400FT
00:00
V
15 °C 15 mi 13,000 ft 330° 330° 2 kt METAR CYYC 290600Z 33002KT 15SM BKN130 BKN210 15/03 A2994 RMK AC5CI3 SLP132 DENSITY ALT 4500FT

September 28, 2022

Time Code Weather Temp. Visibility Ceiling Wind METAR/SPECI
23:00
V
18 °C 15 mi 15,000 ft Var Var 2 kt METAR CYYC 290500Z VRB02KT 15SM BKN150 BKN210 18/03 A2994 RMK AC5CI2 SLP134 DENSITY ALT 4800FT
22:00
V
16 °C 15 mi 16,000 ft 010° 010° 3 kt METAR CYYC 290400Z 01003KT 15SM BKN160 BKN200 16/03 A2994 RMK AC5CI2 SLP140 DENSITY ALT 4600FT
21:00
V
18 °C 15 mi 23,000 ft 070° 070° 3 kt METAR CYYC 290300Z 07003KT 15SM BKN230 18/02 A2993 RMK CI6 SLP139 DENSITY ALT 4900FT
20:00
V
22 °C 15 mi 23,000 ft 100° 100° 8 kt METAR CYYC 290200Z 10008KT 15SM FEW130 BKN230 22/01 A2993 RMK AC2CI3 SLP138 DENSITY ALT 5200FT
19:00
V
22 °C 15 mi 23,000 ft 090° 090° 8 kt METAR CYYC 290100Z 09008KT 15SM FEW130 BKN230 22/02 A2992 RMK ACC1CI6 ACC TR CC ASOCTD SLP132 DENSITY ALT 5300FT
18:00
V
26 °C 15 mi 23,000 ft 080° 080° 6 kt METAR CYYC 290000Z 08006KT 15SM SCT130 BKN230 26/02 A2991 RMK AC3CI2 ACC ASOCTD SLP125 DENSITY ALT 5700FT
17:00
V
26 °C 20 mi 23,000 ft 050° 050° 3 kt METAR CYYC 282300Z 05003KT 20SM SCT130 BKN230 26/M01 A2992 RMK AC3CI3 CC ASOCTD SLP127 DENSITY ALT 5800FT
16:00
V
28 °C 20 mi - 050° 050° 3 kt METAR CYYC 282200Z 05003KT 20SM FEW130 SCT230 28/01 A2993 RMK AC1CI4 AC TR CONTRAILS SLP130 DENSITY ALT 5900FT
15:00
V
28 °C 20 mi 23,000 ft Var Var 6 kt METAR CYYC 282100Z VRB06KT 20SM FEW130 BKN230 28/02 A2994 RMK AC1CI5 AC TR SLP131 DENSITY ALT 5900FT
14:00
V
26 °C 20 mi 23,000 ft 130° 130° 5 kt METAR CYYC 282000Z 13005KT 060V200 20SM BKN230 26/02 A2995 RMK CI5 HZ SLP135 DENSITY ALT 5700FT
13:00
V
24 °C 20 mi - Var Var 2 kt METAR CYYC 281900Z VRB02KT 20SM FEW230 24/03 A2996 RMK CI2 HZ SLP140 DENSITY ALT 5500FT
12:00
V
23 °C 20 mi - Var Var 2 kt METAR CYYC 281800Z VRB02KT 20SM FEW230 23/04 A2997 RMK CI2 HZ SLP145 DENSITY ALT 5300FT
11:00
V
19 °C 20 mi - 140° 140° 3 kt METAR CYYC 281700Z 14003KT 20SM FEW230 19/04 A2998 RMK CI2 HZ SLP149 DENSITY ALT 4900FT
10:00
V
16 °C 30 mi 21,000 ft 130° 130° 3 kt METAR CYYC 281600Z 13003KT 110V210 30SM FEW190 BKN210 16/04 A2997 RMK AC1CI5 AC TR FU LYR ALF VISBL NW-N SLP150 DENSITY ALT 4600FT
09:00
V
12 °C 30 mi - 210° 210° 3 kt METAR CYYC 281500Z 21003KT 30SM FEW250 12/03 A2996 RMK CI2 SLP150 DENSITY ALT 4100FT
08:00
V
10 °C 35 mi - 220° 220° 4 kt METAR CYYC 281400Z 22004KT 35SM FEW300 10/02 A2996 RMK CI2 SLP150 DENSITY ALT 3800FT
07:00
V
10 °C 15 mi - 210° 210° 4 kt METAR CYYC 281300Z 21004KT 15SM FEW250 10/02 A2996 RMK CI2 SLP145 DENSITY ALT 3900FT
06:00
V
11 °C 15 mi - 210° 210° 6 kt METAR CYYC 281200Z 21006KT 15SM SKC 11/02 A2997 RMK SLP143 DENSITY ALT 4000FT
05:00
V
10 °C 15 mi - 200° 200° 6 kt METAR CYYC 281100Z 20006KT 15SM SKC 10/02 A2997 RMK SLP143 DENSITY ALT 3900FT
04:00
V
9 °C 15 mi - 200° 200° 4 kt METAR CYYC 281000Z 20004KT 15SM SKC 09/02 A2997 RMK SLP147 DENSITY ALT 3800FT
03:00
V
11 °C 15 mi - 220° 220° 5 kt METAR CYYC 280900Z 22005KT 15SM SKC 11/02 A2997 RMK SLP144 DENSITY ALT 4000FT
02:00
V
13 °C 15 mi - 220° 220° 3 kt METAR CYYC 280800Z 22003KT 15SM SKC 13/02 A2997 RMK SLP143 DENSITY ALT 4200FT
01:00
V
14 °C 15 mi - 190° 190° 5 kt METAR CYYC 280700Z 19005KT 15SM FEW300 14/02 A2998 RMK CI1 SLP143 DENSITY ALT 4400FT
Older data

We and third parties follow your internet behavior on our website with cookies. If you continue, we assume you agree with our cookie policy. Learn more